Location: Franklinton
(36.1018°N, 78.4581°W)
Time: 23:38:11
(UTC-04:00)

OTV 5 (USA 277) - Visible Passes

Search period start: 25 April 2019 00:00
Search period end: 05 May 2019 00:00
Orbit: 309 x 326 km, 54.5° (Epoch: 21 April)

Date Brightness Start Highest point End Pass type
(mag) Time Alt. Az. Time Alt. Az. Time Alt. Az.
25 Apr ? 20:19:23 10° SW 20:22:07 72° NW 20:24:50 10° NE visible
26 Apr ? 20:34:39 10° W 20:36:55 23° NW 20:39:11 10° NNE visible
27 Apr ? 20:51:25 10° NW 20:51:53 10° NNW 20:52:20 10° NNW visible
